Location: Monte Entu
(40.0333°N, 8.5333°E)
Time: 03:08:35
(UTC+00:00)

Cosmos 968 Rocket - Pass Details

Date: 09 February 2023
Orbit: 739 x 770 km, 74.0° (Epoch: 23 March)

Event Time Altitude Azimuth Distance (km) Brightness Sun altitude
Rises 18:26:05 0° 209° (SSW) 3,198 7.2 -18.0°
Reaches altitude 10° 18:28:29 10° 213° (SSW) 2,282 6.4 -18.5°
Maximum altitude 18:33:34 57° 292° (WNW) 897 4.1 -19.5°
Drops below altitude 10° 18:38:45 10° 11° (N) 2,313 5.8 -20.5°
Sets 18:41:11 0° 16° (NNE) 3,247 6.6 -20.9°
